(320796) = 2008 EU153

Discovered at Catalina on 2008-03-13 by CSS.

Orbit

Orbit type: Main Belt

Note: WebGL enabled browser required.

epoch2023-09-13.0
epoch JD2460200.5
perihelion date2022-02-10.57398
perihelion JD2459621.07398
argument of perihelion (°)58.95725
ascending node (°)147.36587
inclination (°)5.81355
eccentricity0.2302589
perihelion distance (AU)2.1265649
Tisserand w.r.t. Jupiter3.3
ΔV w.r.t. Earth (km/sec)9.4
semimajor axis (AU)2.7627014
mean anomaly (°)124.36578
mean daily motion (°/day)0.21463620
aphelion distance (AU)3.399
period (years)4.59
P-vector [x]-0.89393127
P-vector [y]-0.43795791
P-vector [z]-0.09528775
Q-vector [x]0.44486305
Q-vector [y]-0.84107436
Q-vector [z]-0.30771870
absolute magnitude17.01
phase slope0.15
uncertainty0
referenceMPO 779286
observations used307
oppositions15
arc length (days)10820
first opposition used1994
last opposition used2023
residual rms (arc-secs)0.64
perturbers coarse indicatorM-v
perturbers precise indicator003Ek
first observation date used1994-03-05.0
last observation date used2023-10-19.0
computer nameMPCLINUX
JD of orbit computation2456909.150747
perihelion JD uncertainty (days)1.3361E-04
argument of perihelion uncertainty (°)8.5095E-05
ascending node uncertainty (°)7.7889E-05
inclination uncertainty (°)8.0234E-06
eccentricity uncertainty 7.4063E-08
perihelion distance uncertainty (AU)2.0061E-07
Minimum Orbit Intersection Distances (in AU)
for orbit epoch: 2460200.5, reference: E2023-V03
Mercury1.6919
Venus1.40549
Earth1.12872
Mars0.51236
Jupiter1.57673
Saturn5.83913
Uranus16.0481
Neptune26.4458

Observations

312 total observations over interval: 1994 03 05.26119 – 2023 10 19.315619
These data are available for download (format description).

Date (UT) J2000 RA J2000 Dec Magn Location Ref
1994 03 05.26119 10 55 40.12 +09 47 38.5   691 – Steward Observatory, Kitt Peak-Spacewatch MPS 252081
1994 03 05.28494 10 55 39.00 +09 47 51.0   691 – Steward Observatory, Kitt Peak-Spacewatch MPS 252081
1994 03 05.30884 10 55 37.84 +09 48 02.5 18.9 V 691 – Steward Observatory, Kitt Peak-Spacewatch MPS 252081
1999 05 21.28120 15 53 40.03 -09 19 15.0 19.6 V 691 – Steward Observatory, Kitt Peak-Spacewatch MPS 252081
1999 05 21.30228 15 53 38.92 -09 19 12.3 19.5 V 691 – Steward Observatory, Kitt Peak-Spacewatch MPS 252081
1999 05 21.32339 15 53 37.80 -09 19 09.5 19.9 V 691 – Steward Observatory, Kitt Peak-Spacewatch MPS 252081
2003 01 27.43804 09 06 28.94 +13 51 27.4 20.1   644 – Palomar Mountain/NEAT MPS 252081
2003 01 27.45930 09 06 27.82 +13 51 35.1 20.1   644 – Palomar Mountain/NEAT MPS 252081
2003 01 27.48546 09 06 26.43 +13 51 44.7 20.1   644 – Palomar Mountain/NEAT MPS 252081
2008 02 09.43639 13 26 38.04 -04 32 09.7 20.6 V G96 – Mt. Lemmon Survey MPS 251693
2008 02 09.44609 13 26 38.36 -04 32 09.3 20.6 V G96 – Mt. Lemmon Survey MPS 251693
2008 02 09.45586 13 26 38.72 -04 32 09.0 20.8 V G96 – Mt. Lemmon Survey MPS 251693
2008 02 09.46550 13 26 39.08 -04 32 08.7 20.7 V G96 – Mt. Lemmon Survey MPS 251693
2008 03 13.36558 13 33 25.59 -02 28 32.4 20.1 V 703 – Catalina Sky Survey MPS 251012
2008 03 13.37429 13 33 25.52 -02 28 29.2 19.6 V 703 – Catalina Sky Survey MPS 251012
2008 03 13.38304 13 33 25.27 -02 28 25.8 19.8 V 703 – Catalina Sky Survey MPS 251012
2008 03 13.39181 13 33 25.23 -02 28 22.8 20.5 V 703 – Catalina Sky Survey MPS 251012
2008 03 29.37947 13 26 03.40 -00 30 51.4 19.8 V 703 – Catalina Sky Survey MPS 251012
2008 03 29.38650 13 26 03.12 -00 30 47.9 19.5 V 703 – Catalina Sky Survey MPS 251012
2008 03 29.39353 13 26 02.76 -00 30 46.5 19.1 V 703 – Catalina Sky Survey MPS 251012
2008 03 29.40060 13 26 02.58 -00 30 41.9 19.1 V 703 – Catalina Sky Survey MPS 251012
2008 03 30.35562 13 25 26.69 -00 23 21.4 18.9   704 – Lincoln Laboratory ETS, New Mexico MPS 252081
2008 03 30.36747 13 25 26.20 -00 23 14.3 19.3   704 – Lincoln Laboratory ETS, New Mexico MPS 252081
2008 03 30.37932 13 25 25.69 -00 23 10.7 19.6   704 – Lincoln Laboratory ETS, New Mexico MPS 252081
2008 03 30.39119 13 25 25.18 -00 23 03.6 19.7   704 – Lincoln Laboratory ETS, New Mexico MPS 252081
2008 03 30.40304 13 25 24.69 -00 22 58.9 19.9   704 – Lincoln Laboratory ETS, New Mexico MPS 252081
2008 04 01.32258 13 24 10.11 -00 08 10.4 19.1 V G96 – Mt. Lemmon Survey MPS 251012
2008 04 01.32876 13 24 09.90 -00 08 07.9 19.2 V G96 – Mt. Lemmon Survey MPS 251012
2008 04 01.33492 13 24 09.61 -00 08 05.0 19.2 V G96 – Mt. Lemmon Survey MPS 251012
2008 04 01.34104 13 24 09.36 -00 08 02.3 19.2 V G96 – Mt. Lemmon Survey MPS 251012
2008 04 09.31522 13 18 36.54 +00 51 12.8 18.6 V G96 – Mt. Lemmon Survey MPS 251012
2008 04 09.32150 13 18 36.28 +00 51 15.4 19.2 V G96 – Mt. Lemmon Survey MPS 251012
2008 04 09.32781 13 18 36.00 +00 51 18.1 19.1 V G96 – Mt. Lemmon Survey MPS 251012
2008 04 09.33419 13 18 35.67 +00 51 20.8 18.6 V G96 – Mt. Lemmon Survey MPS 251012
2008 04 28.19111 13 06 14.97 +02 34 26.0 19.7 V G96 – Mt. Lemmon Survey MPS 251012
2008 04 28.19650 13 06 14.79 +02 34 27.4 19.6 V G96 – Mt. Lemmon Survey MPS 251012
2008 04 28.20199 13 06 14.61 +02 34 28.4 19.6 V G96 – Mt. Lemmon Survey MPS 251012
2008 04 28.20740 13 06 14.40 +02 34 29.4 19.6 V G96 – Mt. Lemmon Survey MPS 251012
2010 11 08.27198 02 16 43.14 +05 33 57.9 22.2 V G96 – Mt. Lemmon Survey MPS 355498
2010 11 08.27778 02 16 42.92 +05 33 56.1 21.9 V G96 – Mt. Lemmon Survey MPS 355498
2010 11 08.28352 02 16 42.63 +05 33 54.9 21.3 V G96 – Mt. Lemmon Survey MPS 355498
2010 11 08.28928 02 16 42.31 +05 33 53.9 21.5 V G96 – Mt. Lemmon Survey MPS 355498
2011 12 29.23349 07 28 27.22 +15 53 17.0 20.7 V 691 – Steward Observatory, Kitt Peak-Spacewatch MPS 404712
2011 12 29.25144 07 28 26.27 +15 53 19.9 20.7 V 691 – Steward Observatory, Kitt Peak-Spacewatch MPS 404712
2011 12 29.26940 07 28 25.24 +15 53 23.5 20.9 V 691 – Steward Observatory, Kitt Peak-Spacewatch MPS 404712
2012 01 02.21315 07 24 51.85 +16 04 11.6 20.2 V 691 – Steward Observatory, Kitt Peak-Spacewatch MPS 405986
2012 01 02.23090 07 24 50.79 +16 04 14.5 20.6 V 691 – Steward Observatory, Kitt Peak-Spacewatch MPS 405986
2012 01 02.24866 07 24 49.76 +16 04 18.0 20.6 V 691 – Steward Observatory, Kitt Peak-Spacewatch MPS 405986
2012 01 24.30504 07 03 40.187 +17 20 16.47 21.5 g F51 – Pan-STARRS 1, Haleakala MPS 408851
2012 01 24.31803 07 03 39.468 +17 20 19.48 21.5 g F51 – Pan-STARRS 1, Haleakala MPS 408851
2012 01 24.33081 07 03 38.755 +17 20 22.40 20.6 r F51 – Pan-STARRS 1, Haleakala MPS 408851
2012 01 25.30150 07 02 47.005 +17 24 01.71 20.6 i F51 – Pan-STARRS 1, Haleakala MPS 408851
2012 01 25.31478 07 02 46.266 +17 24 04.68 20.9 i F51 – Pan-STARRS 1, Haleakala MPS 408851
2012 02 10.25288 06 51 17.242 +18 23 17.56 20.7 i F51 – Pan-STARRS 1, Haleakala MPS 411602
2012 02 10.26609 06 51 16.783 +18 23 20.42 20.8 i F51 – Pan-STARRS 1, Haleakala MPS 411602
2013 07 04.37530 17 53 51.175 -15 28 59.06 20.2 g F51 – Pan-STARRS 1, Haleakala MPS 471766
2013 07 04.38577 17 53 50.647 -15 29 00.93 20.2 g F51 – Pan-STARRS 1, Haleakala MPS 471766
2013 07 04.42047 17 53 48.905 -15 29 06.89 19.8 r F51 – Pan-STARRS 1, Haleakala MPS 471766
2013 07 04.43043 17 53 48.413 -15 29 08.60 19.9 r F51 – Pan-STARRS 1, Haleakala MPS 471766
2014 08 27.48171 00 28 38.174 -01 10 50.69 22.0 w F51 – Pan-STARRS 1, Haleakala MPS 529572
2014 08 27.49309 00 28 37.813 -01 10 54.34 21.7 w F51 – Pan-STARRS 1, Haleakala MPS 529572
2014 08 27.51593 00 28 37.073 -01 11 01.53 21.7 w F51 – Pan-STARRS 1, Haleakala MPS 529572
2015 11 13.38675 04 12 39.16 +12 43 28.6 19.9 V G96 – Mt. Lemmon Survey MPS 650120
2015 11 13.39085 04 12 38.88 +12 43 27.8 20.9 V G96 – Mt. Lemmon Survey MPS 650120
2015 11 13.39495 04 12 38.66 +12 43 26.8 20.8 V G96 – Mt. Lemmon Survey MPS 650120
2015 11 13.39905 04 12 38.53 +12 43 26.1 20.7 V G96 – Mt. Lemmon Survey MPS 650120
2015 12 02.31247 03 55 53.809 +11 53 52.75 21.5 w F51 – Pan-STARRS 1, Haleakala MPS 656882
2015 12 02.32514 03 55 53.128 +11 53 51.17 21.4 w F51 – Pan-STARRS 1, Haleakala MPS 656882
2015 12 02.33787 03 55 52.420 +11 53 49.55 21.2 w F51 – Pan-STARRS 1, Haleakala MPS 656882
2015 12 02.35068 03 55 51.739 +11 53 47.96 21.5 w F51 – Pan-STARRS 1, Haleakala MPS 656882
2015 12 03.31539 03 55 00.796 +11 51 48.58 21.2 w F51 – Pan-STARRS 1, Haleakala MPS 656882
2015 12 03.32635 03 55 00.196 +11 51 47.26 21.8 w F51 – Pan-STARRS 1, Haleakala MPS 656882
2015 12 03.34843 03 54 59.005 +11 51 44.52 21.4 w F51 – Pan-STARRS 1, Haleakala MPS 656882
2016 01 03.31430 03 34 25.560 +11 32 35.90 21.8 w F51 – Pan-STARRS 1, Haleakala MPS 667999
2016 01 03.34230 03 34 24.929 +11 32 37.73 22.0 w F51 – Pan-STARRS 1, Haleakala MPS 667999
2016 01 03.35625 03 34 24.582 +11 32 38.35 22.1 w F51 – Pan-STARRS 1, Haleakala MPS 667999
2017 01 02.57476 11 09 08.122 +04 59 30.42 21.2 w F51 – Pan-STARRS 1, Haleakala MPS 757414
2017 01 02.57605 11 09 08.164 +04 59 30.39 21.2 w F51 – Pan-STARRS 1, Haleakala MPS 757414
2017 01 02.58653 11 09 08.488 +04 59 29.59 21.1 w F51 – Pan-STARRS 1, Haleakala MPS 757414
2017 01 02.58782 11 09 08.530 +04 59 29.51 21.2 w F51 – Pan-STARRS 1, Haleakala MPS 757414
2017 01 02.59826 11 09 08.852 +04 59 28.84 21.0 w F51 – Pan-STARRS 1, Haleakala MPS 757414
2017 01 02.59955 11 09 08.889 +04 59 28.82 21.3 w F51 – Pan-STARRS 1, Haleakala MPS 757414
2017 01 02.61003 11 09 09.222 +04 59 28.07 21.2 w F51 – Pan-STARRS 1, Haleakala MPS 757414
2017 01 02.61134 11 09 09.263 +04 59 27.95 21.2 w F51 – Pan-STARRS 1, Haleakala MPS 757414
2017 01 28.54780 11 14 58.641 +05 37 19.34 20.3 w F51 – Pan-STARRS 1, Haleakala MPS 765558
2017 01 28.55960 11 14 58.523 +05 37 22.33 20.4 w F51 – Pan-STARRS 1, Haleakala MPS 765559
2017 01 28.57142 11 14 58.410 +05 37 25.30 20.4 w F51 – Pan-STARRS 1, Haleakala MPS 765559
2017 01 28.58319 11 14 58.293 +05 37 28.19 20.3 w F51 – Pan-STARRS 1, Haleakala MPS 765559
2017 02 01.26298 11 14 19.92 +05 54 20.6 20.2 G G45 – Space Surveillance Telescope, Atom Site MPS 1609506
2017 02 01.34454 11 14 18.69 +05 54 44.2 20.0 G G45 – Space Surveillance Telescope, Atom Site MPS 1609506
